GW5858 Weather Reports


time (UTC)temp
F
wind
direction
speed
knots
gust
knots
rain 1hr
in
rain 24hr
in
rain mn
in
humidity
%
barometer
mb
20260902081516 71 200 0.0 0.0 0.00 0.00 0.00 94 1015.5
20260902080018 71 200 0.0 0.0 0.00 0.00 0.00 94 1015.5
20260902074517 71 200 0.0 0.0 0.00 0.00 0.00 94 1015.7
20260902073014 71 200 0.0 0.0 0.00 0.00 0.00 94 1015.6
20260902071510 71 200 0.0 0.0 0.00 0.00 0.00 94 1015.7
20260902070017 71 200 0.0 0.0 0.00 0.00 0.00 94 1015.8
20260902064534 71 200 0.0 0.0 0.00 0.00 0.00 94 1015.9
20260902063017 70 200 0.0 0.9 0.00 0.00 0.00 94 1015.7
20260902061518 70 306 0.0 0.0 0.00 0.00 0.00 94 1015.9
20260902060017 70 306 0.0 0.0 0.00 0.00 0.00 94 1015.9
20260902054517 70 306 0.0 0.0 0.00 0.00 0.00 94 1016.1
20260902053019 70 306 0.0 0.0 0.00 0.00 0.00 94 1016.0
20260902051519 70 306 0.0 0.0 0.00 0.00 0.00 94 1015.9
20260902050031 70 306 0.0 0.0 0.00 0.00 0.00 93 1015.9
20260902044520 70 306 0.0 0.0 0.00 0.00 0.00 93 1015.8
20260902043018 71 306 0.0 0.0 0.00 0.00 0.00 93 1015.9
20260902041539 71 306 0.0 0.0 0.00 0.00 0.00 92 1015.8
20260902040018 72 306 0.0 0.0 0.00 0.00 0.00 92 1015.7
20260902034518 72 306 0.0 0.0 0.00 0.01 0.00 92 1015.5
20260902033020 72 306 0.0 0.0 0.00 0.01 0.00 92 1015.4
20260902031521 72 306 0.0 0.0 0.00 0.01 0.00 93 1015.5
20260902030020 72 306 0.0 0.0 0.00 0.01 0.00 93 1015.5
20260902024524 72 306 0.0 0.0 0.00 0.01 0.00 92 1015.5
20260902023022 72 306 0.0 0.0 0.00 0.01 0.00 92 1015.7
20260902021516 72 306 0.0 0.0 0.00 0.01 0.00 91 1015.7
20260902020040 73 306 0.0 0.0 0.00 0.01 0.00 91 1015.7
20260902014512 73 306 0.0 0.0 0.00 0.01 0.00 91 1015.7
20260902013020 74 306 0.0 0.0 0.00 0.01 0.00 90 1015.8
20260902011519 74 306 0.0 0.0 0.00 0.01 0.00 90 1015.8
20260902010031 74 306 0.0 0.0 0.00 0.01 0.00 89 1015.4
20260902004524 75 306 0.0 0.0 0.00 0.01 0.00 89 1015.2
20260902003025 75 306 0.0 1.7 0.00 0.01 0.00 89 1015.1
20260902001518 75 306 0.0 1.7 0.00 0.01 0.00 88 1014.9
20260902000024 76 245 0.0 1.7 0.00 0.01 0.00 87 1014.7
20260901234523 76 245 0.0 1.7 0.00 0.01 0.00 86 1014.7
20260901233023 77 246 0.0 2.6 0.00 0.01 0.00 85 1014.7
20260901231523 78 329 0.0 1.7 0.00 0.01 0.00 83 1014.9
20260901230031 78 333 0.0 3.5 0.00 0.01 0.00 81 1015.1
20260901224523 79 360 0.9 3.5 0.00 0.01 0.00 80 1014.9
20260901223019 80 327 0.9 4.3 0.00 0.01 0.00 79 1015.0
20260901221523 80 268 0.9 4.3 0.00 0.01 0.00 78 1015.1
20260901220040 80 310 1.7 7.0 0.00 0.01 0.00 78 1015.2
20260901214519 80 249 1.7 5.2 0.00 0.01 0.00 78 1015.1
20260901213024 80 5 0.9 9.6 0.00 0.01 0.00 78 1015.0
20260901211523 81 242 1.7 4.3 0.00 0.01 0.00 78 1015.1
20260901210028 81 287 1.7 4.3 0.00 0.01 0.00 78 1015.1
20260901204518 82 334 3.5 8.7 0.00 0.01 0.00 76 1015.3
20260901203041 82 216 1.7 10.4 0.00 0.01 0.00 76 1015.4
20260901201525 82 238 0.9 8.7 0.00 0.01 0.00 78 1015.4
20260901200024 82 343 1.7 5.2 0.00 0.02 0.00 79 1015.3
20260901194523 81 244 0.9 5.2 0.00 0.02 0.00 79 1015.3
20260901193023 81 252 1.7 7.0 0.00 0.04 0.00 78 1015.1
20260901191526 81 265 1.7 7.8 0.00 0.06 0.00 79 1015.1
20260901190039 82 273 2.6 8.7 0.00 0.06 0.00 78 1015.5
20260901184516 82 235 3.5 7.8 0.00 0.06 0.00 74 1015.5
20260901183029 82 329 3.5 7.8 0.00 0.09 0.00 75 1015.6
20260901181524 81 246 1.7 7.0 0.00 0.12 0.00 77 1015.5
20260901180025 82 237 1.7 7.8 0.00 0.12 0.00 75 1015.4
20260901174532 82 350 2.6 8.7 0.00 0.12 0.00 75 1015.2
20260901173024 82 296 2.6 8.7 0.00 0.12 0.00 76 1015.0
20260901171525 82 318 3.5 7.8 0.00 0.12 0.00 76 1014.9
20260901170027 81 306 2.6 8.7 0.00 0.12 0.00 78 1014.8
20260901164515 81 346 2.6 7.0 0.00 0.12 0.00 79 1014.8
20260901163017 81 315 3.5 7.8 0.00 0.12 0.00 80 1014.9
20260901161527 80 322 1.7 7.0 0.00 0.12 0.00 79 1014.9
20260901160025 80 300 1.7 7.0 0.00 0.12 0.00 80 1014.8
20260901154528 79 319 2.6 7.0 0.00 0.12 0.00 82 1014.7
20260901153031 79 286 3.5 7.8 0.00 0.12 0.00 81 1014.8
20260901151519 78 336 1.7 7.8 0.00 0.12 0.00 83 1014.7
20260901150030 78 291 2.6 5.2 0.00 0.14 0.00 83 1014.7
20260901144514 78 332 0.9 5.2 0.00 0.17 0.00 85 1014.5
20260901143028 77 311 1.7 8.7 0.00 0.22 0.00 85 1014.5
20260901141524 77 322 1.7 7.0 0.00 0.31 0.00 86 1014.6
20260901140027 77 332 3.5 8.7 0.00 0.38 0.00 87 1014.8
20260901134525 76 268 0.9 7.8 0.00 0.42 0.00 89 1014.8
20260901133031 76 19 1.7 7.0 0.00 0.47 0.00 88 1014.8
20260901131521 75 314 1.7 5.2 0.00 0.50 0.00 90 1014.9
20260901130012 75 347 1.7 7.8 0.00 0.52 0.00 90 1015.0
20260901124529 74 243 0.0 7.0 0.00 0.54 0.00 90 1015.1
20260901123028 75 291 0.9 4.3 0.00 0.54 0.00 90 1015.0
20260901121526 74 311 1.7 3.5 0.00 0.54 0.00 90 1014.7
20260901120027 74 248 0.0 6.1 0.00 0.55 0.00 90 1014.7
20260901114526 74 284 1.7 6.1 0.00 0.56 0.00 89 1014.6
20260901113018 74 24 0.9 4.3 0.00 0.56 0.00 89 1014.5
20260901111516 74 330 2.6 5.2 0.00 0.56 0.00 88 1014.4
20260901110027 74 219 0.9 2.6 0.00 0.56 0.00 87 1014.4
20260901104541 74 302 0.9 4.3 0.00 0.56 0.00 86 1014.2
20260901103026 74 311 2.6 5.2 0.00 0.56 0.00 85 1014.1
20260901101531 72 323 0.9 4.3 0.00 0.56 0.00 88 1013.8
20260901100024 71 299 0.0 0.0 0.00 0.56 0.00 91 1013.6
20260901094522 71 299 0.0 0.0 0.00 0.56 0.00 92 1013.5
20260901093017 71 299 0.0 0.0 0.00 0.56 0.00 92 1013.6
20260901091527 71 299 0.0 0.0 0.00 0.56 0.00 91 1013.5
20260901090031 71 299 0.0 0.0 0.00 0.56 0.00 91 1013.5
20260901084527 72 299 0.0 1.7 0.00 0.56 0.00 91 1013.5
20260901083030 72 299 0.0 1.7 0.00 0.56 0.00 91 1013.5